Lapse_Rate
5.6 5.3 6.0 6.2 6.1 6.2 6.1 6.3 6.5 6.4 6.0 5.8 5.8 5.6 5.4 5.1 4.7 5.8 6.1 5.2 5.3 5.0 5.3 5.4 5.2 5.2 5.3 5.3 5.3 5.2 4.7 5.3 6.2 6.3 6.6 7.0 7.0 6.9 6.7 6.8 6.9 7.1 7.0 7.0 7.0
5.8 5.5 5.6 6.2 6.2 6.2 6.3 6.3 6.5 6.3 6.1 5.9 5.9 5.6 5.5 5.0 4.4 5.7 4.8 5.1 5.1 4.6 5.1 5.3 5.2 5.1 5.0 5.1 4.8 4.6 4.6 5.8 6.3 6.3 6.2 6.2 6.2 6.2 6.4 6.7 6.7 6.9 6.9 7.0 7.0
6.1 5.8 5.6 6.0 6.0 6.0 6.3 6.3 6.4 6.2 6.2 6.0 6.0 5.8 5.6 5.3 4.7 5.5 5.0 5.2 4.7 4.1 4.2 4.8 4.8 4.8 4.9 5.0 5.1 4.7 5.3 5.8 6.0 6.1 6.1 6.3 6.4 6.4 6.4 6.4 6.8 6.7 6.9 6.8 6.8
5.9 5.9 5.7 5.7 6.0 5.9 6.1 6.3 6.2 6.2 6.0 6.1 5.9 5.9 5.9 5.6 5.1 5.4 5.1 5.4 5.0 4.3 4.1 4.6 4.5 4.5 4.7 4.8 4.8 4.5 5.2 5.5 5.8 5.7 5.5 6.0 6.3 6.6 6.4 6.7 6.6 6.3 6.4 6.6 6.7
5.7 5.8 5.8 5.7 5.8 5.8 5.9 6.2 6.1 6.1 6.1 6.0 5.9 5.9 5.9 5.8 5.6 5.0 5.1 5.4 5.2 4.7 4.6 4.4 4.2 4.2 4.5 4.8 4.7 4.5 5.1 5.2 5.5 5.7 5.7 5.8 6.3 6.3 6.6 6.8 6.5 6.3 6.1 6.3 6.5
5.5 5.7 5.7 5.7 5.8 5.5 5.8 5.9 6.1 6.0 6.0 6.0 5.9 5.9 6.1 5.9 5.4 5.4 5.3 5.4 5.1 4.8 4.9 4.4 4.3 4.0 4.1 4.8 4.5 4.4 4.9 5.2 5.3 5.6 5.6 5.7 6.2 5.8 6.8 7.0 6.7 6.4 6.3 6.3 6.4
5.3 5.2 5.5 5.7 5.6 5.6 5.5 5.7 6.0 5.9 5.8 5.9 5.8 6.0 6.1 5.7 5.7 5.5 5.3 5.5 5.2 4.7 4.6 4.4 4.2 4.1 4.3 4.6 4.2 4.2 4.3 4.7 5.4 5.6 4.9 5.1 5.3 6.0 6.7 6.6 6.7 6.6 6.3 6.2 6.3
5.4 5.4 5.4 5.5 5.6 5.6 5.5 5.4 5.5 5.7 5.7 5.8 5.7 6.0 6.1 6.0 5.8 5.4 5.4 5.5 5.3 4.9 4.4 4.2 4.0 3.9 3.9 4.0 3.9 3.8 3.6 4.4 5.0 5.2 5.3 4.8 5.0 6.3 6.6 6.5 6.8 6.7 6.5 6.3 6.3
4.8 5.1 5.2 5.2 5.6 5.4 5.4 5.3 5.1 5.3 5.5 5.5 5.6 5.9 5.9 6.2 5.9 5.8 5.5 5.4 5.3 4.9 4.5 4.2 4.1 3.8 3.7 3.8 3.9 3.8 3.7 3.6 4.3 4.3 4.3 4.4 4.3 5.3 5.9 6.3 6.2 6.5 6.6 6.5 6.3
4.5 4.8 5.1 4.8 5.4 5.5 5.2 5.3 4.9 4.8 5.4 5.5 5.6 5.7 5.8 6.0 6.0 5.8 5.6 5.4 5.3 4.9 4.5 4.3 3.7 3.6 3.3 4.4 3.9 4.1 3.6 3.6 3.6 3.8 4.2 4.5 4.4 5.2 5.3 5.4 5.8 5.9 6.4 6.3 6.3
4.1 4.7 4.9 5.1 5.1 5.5 5.2 5.2 4.9 4.6 5.4 5.7 5.6 5.4 5.8 6.0 5.9 5.6 5.7 5.5 5.1 4.8 4.5 4.1 3.9 4.3 5.2 4.5 4.1 3.9 3.7 3.6 3.6 3.3 4.1 4.8 4.8 4.8 5.2 5.3 5.9 6.4 6.3 6.1 6.2
4.7 4.1 4.9 5.2 5.5 5.8 5.5 5.3 5.4 5.1 5.3 5.3 5.4 5.5 5.6 5.7 5.7 5.6 5.5 5.3 5.2 5.1 4.6 4.1 4.6 4.9 4.4 4.2 3.9 3.5 3.5 3.4 3.3 3.9 3.6 4.0 5.0 5.1 5.7 6.0 6.1 6.4 6.5 6.4 6.2
5.7 4.7 4.4 5.8 6.3 6.3 5.7 5.4 5.3 5.3 5.2 5.2 5.3 5.5 5.4 5.4 5.4 5.5 5.2 5.1 4.9 4.7 4.8 4.6 4.5 4.5 4.4 4.1 3.9 3.9 3.6 3.6 3.7 4.0 4.0 3.8 4.3 5.7 6.1 6.2 6.4 6.6 6.8 6.9 6.7
6.2 5.6 5.1 5.7 6.2 6.0 6.4 5.8 5.2 5.1 4.9 5.3 5.6 5.7 5.3 5.4 5.5 5.5 5.1 4.8 4.4 4.5 4.4 4.2 4.6 4.1 3.9 3.7 4.0 3.8 4.1 4.2 4.0 3.6 3.3 3.9 3.5 4.1 5.0 5.6 6.0 6.5 6.8 7.2 7.1
6.7 6.5 6.2 5.5 6.0 6.4 6.3 6.4 5.9 5.1 3.9 5.4 5.3 4.8 5.5 5.1 5.0 5.6 5.2 4.4 4.3 4.4 4.5 4.7 4.4 4.3 4.1 4.5 4.2 3.8 3.9 4.0 3.9 3.7 3.5 3.4 3.4 4.0 4.2 5.1 6.2 6.8 6.9 7.0 7.0
7.3 6.9 6.7 5.7 6.0 6.5 6.5 6.1 5.8 5.4 3.8 5.1 4.8 4.5 4.6 4.3 4.3 4.9 5.0 4.2 4.0 3.8 3.8 4.1 4.0 4.0 4.4 4.4 4.2 4.3 3.9 4.0 4.2 4.3 4.3 4.2 3.8 4.0 4.3 5.3 6.2 6.7 6.8 6.9 6.4
7.3 7.0 6.8 6.1 6.5 6.1 6.1 6.0 5.7 5.4 5.6 5.3 4.7 4.4 4.5 4.5 4.6 4.5 4.4 4.0 4.3 4.1 4.2 4.3 4.3 4.2 4.3 4.2 4.3 4.3 4.7 4.9 4.9 5.0 5.0 5.5 4.7 4.3 5.0 5.5 5.8 6.6 7.0 6.5 6.4
7.1 7.0 6.6 6.1 6.1 6.0 6.5 6.4 6.1 6.0 5.9 5.6 5.2 4.8 4.5 4.6 4.5 4.5 4.2 4.2 4.3 4.4 4.3 4.3 4.4 4.8 4.3 4.6 4.5 4.8 5.1 5.8 6.0 5.8 5.7 6.4 4.8 4.6 5.4 5.4 6.3 6.3 6.4 6.6 6.4
7.5 7.0 6.6 6.7 6.1 6.0 6.4 6.1 6.7 6.8 7.0 6.7 5.1 4.7 4.7 4.8 4.5 4.6 4.4 4.6 4.6 4.5 4.3 4.2 4.0 4.5 5.0 5.0 5.0 4.9 4.9 5.4 5.5 5.8 6.0 6.3 6.4 6.5 6.6 6.4 6.3 6.7 6.3 6.6 6.7
7.1 6.8 7.0 6.8 6.7 6.5 6.4 6.2 6.6 6.9 7.0 6.6 6.2 5.5 5.2 5.1 4.9 4.2 4.6 5.3 4.9 4.8 4.2 4.1 4.3 4.8 5.2 5.0 5.2 4.8 4.9 5.1 5.5 5.9 6.3 6.3 6.0 6.4 8.3 8.0 7.8 7.4 6.4 6.2 6.6
6.9 6.8 6.3 6.1 6.2 6.1 6.2 6.2 6.6 6.9 6.9 6.5 6.7 6.3 5.9 5.7 4.9 4.7 5.3 5.2 5.0 5.0 4.5 4.4 4.3 4.5 4.7 5.2 6.0 5.0 4.9 5.3 5.7 5.8 6.4 6.7 6.9 7.3 8.0 8.0 8.1 7.6 7.0 6.5 6.7
6.6 6.4 6.0 6.3 5.8 5.9 6.3 6.3 6.7 7.1 6.8 7.0 6.8 6.5 6.1 5.6 4.9 5.0 5.0 5.0 5.0 5.3 5.0 5.0 4.2 4.4 5.0 5.5 5.1 5.2 5.6 5.4 5.7 6.1 5.8 5.9 6.0 7.5 8.0 8.5 8.4 7.7 6.9 6.9 6.4
6.4 6.9 6.3 6.5 6.0 5.9 6.1 6.4 6.7 7.2 7.0 7.2 7.0 6.4 6.0 5.6 5.4 4.9 4.8 4.9 5.0 5.2 5.0 5.2 4.3 4.2 4.7 5.1 5.2 4.5 5.5 5.1 5.3 5.6 5.6 6.1 6.4 7.7 7.8 8.2 7.7 7.4 7.3 6.9 6.5
6.4 6.7 6.4 6.2 5.9 5.7 6.1 6.6 6.8 6.8 7.1 7.0 6.8 6.4 6.1 5.7 5.2 4.8 4.8 4.9 5.0 5.0 4.9 4.7 4.5 4.5 4.6 5.9 5.6 5.1 4.8 4.9 5.1 5.5 5.7 5.6 6.9 7.3 7.6 7.8 7.4 7.1 6.9 6.9 6.8
6.3 6.3 6.4 6.0 5.8 6.1 6.4 6.5 6.5 6.9 6.8 6.9 6.8 6.6 5.9 5.3 5.4 4.9 4.9 5.0 4.9 5.0 4.9 4.5 4.5 4.6 5.3 5.3 5.0 5.0 5.0 4.9 4.7 5.3 5.3 6.6 6.5 7.7 6.7 6.6 6.7 6.9 6.8 6.7 6.7
6.3 6.4 6.6 6.4 6.3 6.0 6.2 6.6 7.1 7.0 7.0 6.9 6.8 6.2 5.6 5.5 5.3 5.4 5.1 5.0 5.0 4.9 4.5 4.5 4.5 4.5 5.0 5.2 5.1 5.0 5.4 4.7 4.6 5.1 5.1 5.2 5.9 6.5 6.1 6.2 6.6 6.7 6.3 6.3 6.6
6.5 6.5 6.4 6.3 6.0 5.9 6.5 6.7 6.9 6.6 6.7 6.6 6.3 5.8 5.7 5.7 5.6 5.7 5.1 5.0 4.8 4.6 4.7 4.7 4.7 4.7 4.9 5.4 5.5 5.4 5.1 4.8 4.8 4.6 5.3 5.1 6.6 6.2 6.4 6.2 6.3 6.3 6.6 6.6 6.6
Wind_Speed
17 18 13 11 8 10 10 7 7 9 8 9 8 9 12 10 11 4 5 7 5 9 1 2 3 3 2 2 2 2 2 6 7 8 5 1 3 1 2 2 3 2 1 3 2
18 17 16 13 10 9 9 7 7 8 9 8 7 7 9 2 5 9 6 8 10 5 2 2 1 1 2 2 2 2 3 8 6 5 3 2 1 4 3 3 3 4 2 5 3
22 19 19 15 13 10 8 6 6 6 8 8 6 6 5 4 2 2 11 18 16 8 4 2 3 1 2 1 3 3 5 3 2 2 1 2 3 2 3 5 7 6 4 5 0
27 21 18 18 15 12 9 7 6 5 5 6 4 4 5 2 5 1 5 2 8 10 8 5 2 3 3 3 2 2 5 4 2 3 2 3 2 5 5 9 3 4 5 5 9
25 24 20 19 17 15 12 8 7 5 3 3 4 3 3 3 5 2 6 9 2 10 10 7 3 3 3 2 2 3 3 3 4 5 5 6 12 12 13 11 9 12 8 13 11
26 24 25 20 21 16 14 11 8 6 3 2 1 1 4 2 1 4 3 3 4 10 7 4 6 3 3 2 3 2 2 6 6 8 6 10 16 7 9 11 16 12 14 13 11
28 24 23 21 20 19 16 14 10 8 5 3 1 1 1 7 5 3 5 1 1 4 5 4 4 4 3 1 2 2 4 6 8 7 8 4 15 16 16 14 18 16 12 13 14
26 25 24 21 18 21 18 15 14 10 7 5 4 1 5 1 3 1 2 2 4 3 4 6 5 2 1 1 1 3 2 3 3 2 6 10 15 9 9 11 19 20 19 18 20
26 25 24 19 23 21 20 17 13 12 8 7 2 3 6 0 2 3 3 4 5 3 2 6 4 4 3 2 2 4 4 6 5 2 4 10 6 2 2 4 8 9 12 13 14
26 21 24 18 20 17 22 16 12 9 3 3 1 2 3 2 3 4 1 5 4 5 4 3 2 4 4 5 6 5 4 4 6 1 4 14 19 16 15 13 16 12 11 12 13
25 23 21 22 13 21 18 9 5 2 2 7 3 2 1 2 4 3 3 5 3 4 5 2 4 9 13 7 4 1 3 10 7 6 11 16 22 19 18 18 18 17 17 16 15
24 22 19 23 15 23 17 5 8 8 4 10 3 3 2 1 3 2 6 5 4 4 5 2 9 8 3 4 6 9 14 16 15 14 11 17 27 18 18 21 20 21 19 18 18
23 24 22 22 23 12 19 10 7 6 4 2 5 7 3 3 1 6 7 4 4 5 7 6 3 5 9 4 6 7 11 10 13 10 13 17 25 17 15 18 19 21 21 21 20
26 28 25 23 11 5 14 10 9 4 4 4 4 5 6 4 4 6 8 5 3 10 5 5 5 4 4 4 9 13 8 12 12 7 6 3 11 9 6 12 11 13 15 18 20
36 36 30 19 8 6 8 10 6 4 2 3 4 2 7 8 5 0 4 3 7 6 5 4 4 4 11 13 9 6 5 8 8 8 11 13 7 8 2 5 8 10 14 15 17
36 26 23 8 6 4 19 13 3 4 6 6 4 6 8 6 5 4 5 1 2 3 5 6 2 5 7 7 13 2 3 6 4 7 9 11 11 19 7 7 5 11 10 10 13
32 18 10 6 5 15 15 7 4 4 2 8 5 7 8 6 5 6 7 9 5 3 5 5 16 8 4 3 4 11 4 2 4 6 8 5 11 21 8 18 16 12 12 13 9
29 12 6 5 14 15 11 4 4 5 4 5 6 9 5 6 4 5 6 7 11 3 1 4 5 11 10 15 5 13 11 5 6 5 5 2 9 10 13 16 15 10 9 10 7
33 2 3 4 13 8 9 3 6 6 8 10 11 6 4 5 2 6 7 5 7 13 6 5 5 1 4 4 10 5 10 8 9 13 10 8 13 11 14 11 10 7 7 12 13
3 2 3 9 13 4 4 4 2 4 14 9 5 5 8 9 7 8 7 3 4 10 6 1 4 4 2 3 9 8 2 4 5 5 9 5 7 11 7 10 10 4 7 9 10
2 1 3 7 8 3 2 3 3 4 7 4 4 5 5 6 7 5 3 3 5 4 13 4 3 1 5 10 11 8 8 7 3 5 6 9 10 7 10 10 6 4 6 8 10
3 1 3 13 4 2 4 5 4 3 6 4 4 5 4 6 6 6 7 4 6 8 9 8 3 5 12 9 15 16 12 17 8 10 6 5 20 3 6 5 3 7 6 7 7
2 2 3 4 3 2 2 4 4 3 2 2 3 3 3 6 4 7 3 3 9 9 9 7 4 4 8 2 3 10 19 20 17 9 16 5 11 2 5 4 4 7 6 4 1
0 2 3 2 2 4 5 3 4 3 3 3 4 4 3 4 6 2 4 3 10 8 9 10 5 7 10 14 1 7 18 19 20 10 15 19 28 20 14 13 14 10 6 5 5
1 2 3 4 4 3 4 3 5 4 2 3 2 6 5 3 5 7 7 3 4 9 6 8 6 11 22 24 24 26 27 21 22 28 14 16 19 27 16 16 9 6 5 5 7
1 2 1 4 8 8 4 6 8 4 6 3 3 6 8 7 6 6 6 5 5 4 7 4 4 4 20 22 22 21 25 21 20 23 19 19 22 20 16 6 5 10 8 8 9
3 2 2 10 7 6 6 7 6 4 5 5 7 5 8 12 13 12 3 1 2 4 9 4 3 3 11 11 20 6 8 7 7 13 15 14 17 8 11 7 10 14 7 10 11
Wind_Direction
290 261 252 251 236 265 278 281 297 299 293 298 310 326 326 282 173 149 221 195 178 258 283 339 43 2 73 101 92 132 153 210 221 178 229 264 208 301 303 273 328 276 289 329 26
296 278 249 251 245 249 267 282 292 297 299 301 314 339 355 331 187 214 234 195 204 194 110 104 94 34 74 114 105 169 197 217 193 185 212 289 319 349 324 312 288 319 329 4 119
298 287 255 239 244 234 247 266 281 289 296 306 321 346 23 16 279 256 246 233 226 178 136 105 114 109 126 159 164 166 228 193 223 156 282 259 285 245 227 265 235 254 290 345 131
338 299 277 240 234 228 223 236 252 269 288 314 333 354 32 55 211 300 45 1 245 158 135 115 99 116 135 182 168 193 251 239 249 322 289 256 299 275 247 250 287 210 299 302 302
332 332 296 259 227 227 204 212 236 247 273 318 340 6 72 174 253 311 344 6 68 148 163 149 135 144 168 170 123 201 261 270 293 309 270 260 247 250 245 250 266 280 276 279 276
327 332 332 286 236 215 212 192 215 233 220 296 327 156 107 189 224 17 331 10 68 171 157 150 176 165 144 184 167 189 253 276 285 268 258 255 258 216 236 235 244 243 254 258 251
327 323 327 317 245 213 209 189 197 211 201 192 177 104 105 235 112 325 11 71 48 114 144 175 114 136 147 158 200 224 290 297 245 236 240 260 263 242 249 234 243 237 237 249 249
317 324 324 326 296 220 200 192 187 195 183 171 164 75 241 208 126 272 142 80 77 86 106 148 152 130 169 297 255 241 209 275 279 242 246 194 259 250 259 231 242 243 244 246 253
318 314 315 316 318 235 192 189 180 182 169 164 82 143 264 6 158 202 167 140 112 76 93 128 126 142 119 202 310 209 251 210 288 159 296 201 272 293 291 329 284 264 257 252 255
320 309 318 311 314 272 182 168 143 117 132 121 236 285 261 135 135 118 231 133 115 114 77 97 111 153 176 180 218 199 231 235 234 347 333 295 278 278 288 298 292 282 271 269 259
317 316 311 310 301 303 150 129 116 97 243 193 180 230 76 72 118 67 129 89 82 95 158 171 189 205 205 201 235 143 249 264 282 297 315 273 277 275 276 272 269 266 269 264 262
321 317 319 314 281 303 153 186 184 165 185 238 226 281 293 30 117 93 141 131 140 164 133 120 238 228 194 203 231 255 266 267 276 268 266 284 279 277 265 259 253 254 249 247 249
315 319 310 312 309 302 173 175 145 118 97 220 199 207 198 130 224 181 158 132 133 146 191 183 200 183 192 196 221 233 246 262 260 290 268 283 281 266 250 253 250 251 251 249 245
313 307 299 300 295 202 184 156 157 98 80 220 194 229 167 121 262 183 178 140 156 189 169 238 236 185 169 199 199 254 208 238 256 273 271 152 292 264 250 260 257 243 240 238 239
306 291 284 265 302 192 146 150 131 64 53 156 150 137 154 170 146 60 174 131 163 175 153 225 193 165 220 233 177 234 181 212 232 243 281 243 266 281 12 275 263 254 245 234 235
309 287 264 241 231 257 154 138 95 82 236 157 129 178 154 190 165 125 164 240 105 186 227 218 187 172 202 213 196 178 282 282 236 240 245 241 206 277 254 249 261 257 272 255 245
324 299 232 191 200 169 156 124 124 158 170 150 163 167 173 165 172 160 173 187 174 171 214 226 231 196 176 190 188 180 175 246 233 213 247 195 196 245 279 292 271 261 263 261 250
334 313 210 190 153 167 149 126 124 156 158 128 121 136 172 137 204 173 156 194 212 166 165 213 305 182 185 218 190 186 201 201 240 221 259 242 232 251 226 245 256 276 284 290 265
328 309 164 188 168 181 140 117 175 180 147 132 123 143 170 206 190 188 206 208 198 183 202 193 253 263 219 174 206 169 217 237 270 266 264 237 261 289 257 251 270 286 291 271 268
267 275 152 157 152 135 137 127 141 124 116 132 129 173 176 193 174 182 186 222 202 181 171 170 284 218 336 136 247 213 128 183 193 249 251 239 252 239 247 298 283 261 299 307 293
125 189 135 169 136 131 190 135 108 95 114 134 124 144 157 154 167 185 227 264 207 173 179 151 175 297 142 206 198 191 222 214 244 232 259 271 259 188 230 233 220 245 279 305 302
289 123 209 152 103 164 159 145 115 112 61 99 98 99 138 147 179 193 221 232 169 142 176 196 181 247 231 211 209 212 227 216 232 226 218 244 264 192 211 207 185 299 300 294 298
218 157 141 88 125 160 188 94 108 104 115 103 95 83 128 164 193 198 195 224 166 164 168 167 209 293 303 353 200 220 227 225 233 252 230 221 271 195 358 351 303 272 297 302 167
86 97 21 140 312 140 142 108 93 37 100 88 100 93 114 213 204 188 224 270 191 198 174 172 204 210 246 257 119 235 234 228 222 237 246 227 258 263 275 289 302 321 304 238 172
63 72 151 157 202 155 76 105 121 139 85 127 144 192 166 236 215 224 209 258 172 203 189 175 254 242 257 266 274 265 262 246 222 229 233 252 232 263 269 270 275 268 296 199 173
121 161 219 142 145 174 150 188 171 122 158 182 206 185 213 232 224 193 165 192 211 118 180 207 263 266 276 268 263 274 273 265 234 229 238 250 262 267 270 281 298 311 323 211 178
311 286 174 165 156 164 191 163 181 111 211 174 192 225 234 242 240 259 297 285 256 164 184 217 257 287 279 331 307 274 290 276 225 192 215 233 247 260 294 307 305 290 243 210 175